Location: Cointrin
(46.2167°N, 6.1167°E)
Time: 09:52:01
(UTC+00:00)

BlueWalker 3 - Visible Passes

Search period start: 28 September 2023 00:00
Search period end: 08 October 2023 00:00
Orbit: 491 x 508 km, 53.2° (Epoch: 27 September)

Date Brightness Start Highest point End Pass type
(mag) Time Alt. Az. Time Alt. Az. Time Alt. Az.
28 Sep 4.1 02:40:46 24° NNE 02:40:46 24° NNE 02:43:06 10° ENE visible
28 Sep 2.8 04:15:24 12° NW 04:18:49 46° NNE 04:22:33 10° E visible
29 Sep 4.7 02:20:14 18° NE 02:20:14 18° NE 02:21:32 10° ENE visible
29 Sep 2.8 03:54:52 20° NW 03:57:15 46° NNE 04:00:59 10° E visible
30 Sep 5.3 01:59:46 11° ENE 01:59:46 11° ENE 01:59:58 10° ENE visible
30 Sep 2.8 03:34:24 33° NNW 03:35:40 46° NNE 03:39:25 10° E visible
01 Oct 2.7 03:14:03 46° NNE 03:14:05 46° NNE 03:17:49 10° E visible
01 Oct 2.5 04:48:53 10° WNW 04:52:31 41° SW 04:56:10 10° SSE visible
02 Oct 3.6 02:53:47 32° ENE 02:53:47 32° ENE 02:56:13 10° E visible
02 Oct 2.4 04:28:27 18° WNW 04:30:55 40° SW 04:34:33 10° SSE visible
03 Oct 4.7 02:33:40 16° E 02:33:40 16° E 02:34:35 10° E visible
03 Oct 2.4 04:08:20 34° WSW 04:09:17 40° SW 04:12:54 10° SSE visible
04 Oct 2.7 03:48:23 36° S 03:48:23 36° S 03:51:16 10° SSE visible
05 Oct 4.1 03:28:36 17° SSE 03:28:36 17° SSE 03:29:36 10° SSE visible
